DELTA 1 DEB

Satellite information

Favourite Embed

Satellite Type and Status

DEBRISIN ORBIT

Key statistics

Satellite DELTA 1 DEB at a glance.

Uptime

17231

Days in orbit

Revolutions

≈ 14.6

Per day

Orbit

SSO

Sun Synchronous Orbit

Inclination

98.4

Latest

Satellite identification and parameters

Extended collection of information and parameters for DELTA 1 DEB.

Object identification

Identified? True

Debris? True

Object name: DELTA 1 DEB

International designator: 1978-026FW

Object number (NORAD): 13827

Object ID (CCSDS): 13827

Country: UNITED STATES OF AMERICA (US)

Current information (Y/N): Y

RCS size: SMALL

Orbital parameters

Period: 98.588 minutes

Inclination: 98.4206 deg

SMA: 7069.276 km

Apoapsis: 735.151 km

Periapsis: 647.13 km

RAAN: 131.4673 deg

Eccentricy: 0.0062256

Argument of periapsis: 327.5701 deg

Mean anomaly: 83.9681 deg

Mean motion: 14.60630602 rev/day

Mean motion (dot): 0.00003376 rev/day2

B* drag term: 0.00068564 1/REarth

Two-line elements (TLE)

Creation date: May 8, 2025, 3:01 a.m.

Reference frame: TEME

Reference center: EARTH

Epoch: May 7, 2025, 6:10 p.m. UTC

TLE line 0: 0 DELTA 1 DEB

TLE line 1: 1 13827U 78026FW 25127.75754017 .00003376 00000-0 68564-3 0 9998

TLE line 2: 2 13827 98.4206 131.4673 0062256 327.5701 83.9681 14.60630602221023

Live tracking on map

Real-time ground track for satellite DELTA 1 DEB.

In-orbit conjunctions

A list of the most updated potential collisions computed for object DELTA 1 DEB.

Target Orbit TCA Probability of collision Miss distance Type
SARA SSO 2025-02-26 01:07:32 0.0001123905 627.0 (m) PAYLOAD

Associated space launch

Earth observation satellite

DELTA 1 DEB was lifted into orbit during the mission ‘Delta 2910 | Landsat 3’, on board a Delta 2910 space rocket.

The launch took place on March 5, 1978, 5:54 p.m. from Space Launch Complex 2W.

For more information about the launch, click the button.

Launch to space Delta 2910 | Landsat 3
Delta 2910 | Landsat 3

Agency: N/A

Status: Launch Successful

Launch date: March 5, 1978, 5:54 p.m. UTC

Rocket: Delta 2910

Launch pad: Space Launch Complex 2W

Location: Vandenberg SFB, CA, USA

...

Latest news about this satellite

There are no fresh news available about this satellite. Check back as we update our databases every day.


Newsletter sign-up

Weekly statistics, charts and insights to help you stay on top of the space industry.